This demonstration page uses our WeatherBlox Daily Observations layout. Learn more.

Left ArrowRight Arrow

Hourly Observations for February 22, 2017

Temp ( °F °C ) Dew Point ( °F °C ) Humidity (%) Winds ( mph kmh ) Pressure ( in mb ) Visibility ( mi km ) Precip ( " mm )
12:51 am 00:51 Clear 50 10 39 3.9 66 66 E 3 6 30.08 1019 10 16 N/A
1:51 am 01:51 Clear 46 7.8 38 3.3 73 73 SSE 5 7 30.07 1018 10 16 N/A
2:51 am 02:51 Clear 46 7.8 39 3.9 77 77 SE 5 7 30.05 1018 10 16 N/A
3:51 am 03:51 Clear 45 7.2 39 3.9 80 80 SE 6 9 30.03 1017 10 16 N/A
4:51 am 04:51 Clear 44 6.7 39 3.9 83 83 ESE 3 6 30.02 1017 10 16 N/A
5:51 am 05:51 Clear 42 5.6 38 3.3 85 85 SE 6 9 30.02 1017 10 16 N/A
6:51 am 06:51 Clear 43 6.1 38 3.3 82 82 SE 7 11 30.03 1017 10 16 N/A
7:51 am 07:51 Sunny 48 8.9 39 3.9 71 71 SE 6 9 30.04 1017 10 16 N/A
8:51 am 08:51 Sunny 56 13.3 42 5.6 60 60 SSE 9 15 30.02 1017 10 16 N/A
9:51 am 09:51 Sunny 63 17.2 42 5.6 47 47 SE 8 13 30.00 1016 10 16 N/A
10:51 am 10:51 Sunny 66 18.9 42 5.6 42 42 ESE 6 9 29.98 1015 10 16 N/A
11:51 am 11:51 Sunny 71 21.7 42 5.6 35 35 N N/A 29.94 1014 10 16 N/A
12:51 pm 12:51 Sunny 74 23.3 41 5 31 31 ENE 5 7 29.89 1012 10 16 N/A
1:51 pm 13:51 Sunny 76 24.4 39 3.9 26 26 W 3 6 29.85 1011 10 16 N/A
2:51 pm 14:51 Sunny 77 25 39 3.9 26 26 NNW 13 20 29.81 1010 10 16 N/A
3:51 pm 15:51 Sunny 77 25 38 3.3 24 24 WNW 9 15 29.79 1009 10 16 N/A
4:51 pm 16:51 Sunny 76 24.4 38 3.3 25 25 WNW 13 20 29.77 1008 10 16 N/A
5:51 pm 17:51 Sunny 72 22.2 40 4.4 31 31 NW 18 30 29.76 1008 10 16 N/A
6:51 pm 18:51 Clear 68 20 41 5 38 38 NW 10 17 29.77 1008 10 16 N/A
7:51 pm 19:51 Clear 66 18.9 40 4.4 39 39 NNW 10 17 29.76 1008 10 16 N/A
8:51 pm 20:51 Clear with Light Rain 64 17.8 39 3.9 40 40 NNW 9 15 29.75 1007 10 16 N/A
9:51 pm 21:51 Clear 60 15.6 42 5.6 52 52 SW 5 7 29.74 1007 10 16 N/A
10:51 pm 22:51 Clear 56 13.3 41 5 57 57 W 6 9 29.73 1007 10 16 N/A
11:51 pm 23:51 Clear 56 13.3 42 5.6 60 60 SE 6 9 29.70 1006 10 16 N/A

Powered by AerisWeather